Regional Weather Roundup
Issued by NWS Sioux Falls, SD

Home | Current Version | Previous Version | Text Only | Print | Product List | Glossary On
Versions: 1 2 3 4 5 6 7 8 9 10 11 12 13 14 15 16 17 18 19 20 21 22 23 24 25 26 27 28 29 30 31 32 33 34 35 36 37 38 39 40 41 42 43 44 45 46 47 48 49 50
000
ASUS43 KFSD 291210
RWRFSD

WEATHER ROUNDUP FOR SE SOUTH DAKOTA/SW MINNESOTA/NW IOWA
NATIONAL WEATHER SERVICE SIOUX FALLS SD
700 AM CDT THU JUN 29 2017

NOTE: "FAIR" INDICATES FEW OR NO CLOUDS BELOW 12,000 FEET WITH NO
SIGNIFICANT WEATHER AND OR OBSTRUCTIONS TO VISIBILITY.


SDZ038>040-050-052>070-291300-
SOUTHEAST SOUTH DAKOTA

CITY           SKY/WX    TMP DP  RH WIND       PRES   REMARKS
BROOKINGS      CLOUDY    56  54  93 CALM      29.79R
CHAMBERLAIN    CLOUDY    61  46  56 E6        29.78R
6HR MIN TEMP:  60; 6HR MAX TEMP:  68;

HURON          CLOUDY    57  50  77 SW5       29.78R
6HR MIN TEMP:  52; 6HR MAX TEMP:  59;

MADISON        FAIR      55  55 100 S5        29.80R
MITCHELL       CLOUDY    59  52  77 S5        29.80R
6HR MIN TEMP:  56; 6HR MAX TEMP:  63;

SIOUX FALLS    CLOUDY    63  62  97 CALM      29.79R
6HR MIN TEMP:  56; 6HR MAX TEMP:  64;

WINNER         PTSUNNY   62  53  72 W5        29.79R
YANKTON        MOCLDY    63  60  90 NE3       29.76F
$$

MNZ071-072-080-081-089-090-097-098-291300-
SOUTHWEST MINNESOTA

CITY           SKY/WX    TMP DP  RH WIND       PRES   REMARKS
FAIRMONT       SUNNY     62  60  93 W6        29.77F
JACKSON        SUNNY     59  59 100 CALM      29.80R FOG
LUVERNE        SUNNY     59  55  88 CALM      29.80R
MARSHALL       CLOUDY    61  59  93 NW3       29.78R
6HR MIN TEMP:  56; 6HR MAX TEMP:  62;

MONTEVIDEO     CLOUDY    63  61  94 N5        29.76R
PIPESTONE      MOSUNNY   61  57  88 CALM      29.80R
REDWOOD FALLS  MOSUNNY   62  59  90 W7        29.78R
TRACY          MOSUNNY   61  60  95 CALM      29.78R
WINDOM         MOSUNNY   61  57  88 CALM      29.78S FOG
WORTHINGTON    SUNNY     59  58  96 CALM      29.80R
$$

IAZ001>003-012>014-020>022-031-032-NEZ013-014-SDZ071-291300-
NORTHWEST IOWA

CITY           SKY/WX    TMP DP  RH WIND       PRES   REMARKS
CHEROKEE       MOSUNNY   62  62 100 NE5       29.76S
DENISON        CLOUDY    68  66  94 S6        29.75F
ESTHERVILLE    MOSUNNY   60  60 100 W5        29.78R
LE MARS        CLOUDY    63  61  94 N5        29.77S
ORANGE CITY    PTSUNNY   64  63  94 CALM      29.78R
SHELDON        PTSUNNY   61  59  94 CALM      29.77R
SIOUX CITY     MOSUNNY   66  64  93 E3        29.74R
6HR MIN TEMP:  61; 6HR MAX TEMP:  68;

SPENCER        PTSUNNY   60  59  96 CALM      29.78R FOG
6HR MIN TEMP:  55; 6HR MAX TEMP:  68;

STORM LAKE     CLOUDY    66  63  88 NE5       29.76S
$$

ABBREVIATIONS USED IN REMARKS
   TC - TEMPERATURE IN CELSIUS
  WCI - WIND CHILL INDEX
   HX - HEAT INDEX
  VSB - VISIBILITY




USA.gov is the U.S. government's official web portal to all federal, state and local government web resources and services.